186P/Garradd (2008)

Japanese version
Home page
Total 6,336 html files since Dec. 4, 1995
Updated on June 16, 2008

---------------------------------------------------------------------

* Profile

Designation 186P/2007 B3
Discovery Date January 25, 2007
Magnitude 18.0 mag
Discoverer G. J. Garradd (Siding Spring Survey)

* Orbital Elements

The following orbital elements are taken from MPC 59045:

Epoch 2008 Apr. 4.0 TT = JDT 2454560.5
T 2008 Mar. 20.5030 TT                                  MPC
q   4.263475             (2000.0)            P               Q
n   0.0926746      Peri.  278.7443      -0.3319242      +0.9077112
a   4.836104       Node   327.8545      -0.5570935      -0.4082184
e   0.118407       Incl.   28.8439      -0.7612314      -0.0970473
P  10.6
From 49 observations 1975-2007, mean residual 0".6.

* Magnitudes Graph

        m1 = 8.5 + 5 log d + 10.0 log r

---------------------------------------------------------------------

The orbital elements are published at the MPC Ephemerides and Orbital Elements.
The magnitudes graphs are made with Comet for Windows.

---------------------------------------------------------------------

Copyright(C) 1995-2008 Seiichi Yoshida (comet@aerith.net). All rights reserved.